Back to catalog

STARLINK-30411

AliveCommunicationsVLEO
NORAD 57828·PAYLOAD·🇺🇸 United States

Launched Sep 9, 2023 from Cape Canaveral Space Force Station

Loading…

Next Passes (next 24 hours)

TLE

FreshSource: CelesTrak SupGP

Epoch: Sep 14, 2026, 21:25 UTC

1 57828C 23138W   26257.89284722  .00035103  00000+0  12717-2 0  2579
2 57828  43.0015 245.5142 0001325 260.7818 181.4909 15.27554066    15

Track STARLINK-30411 in real time with AllMySat

Download on the App Store